De Kooy, Netherlands

5:40 AM CEST on June 28, 2017 (GMT +0200)
De Kooy Navy

Weather History for EHKD - December, 2012

Change the Weather History Date:

Wednesday, December 5, 2012

  Actual Average Record
Temperature  
Mean Temperature 35 °F -  
Max Temperature 40 °F 42 °F 57 °F (2006)
Min Temperature 30 °F 35 °F 28 °F (2016)
Degree Days  
Heating Degree Days 30    
Moisture  
Dew Point 30 °F    
Average Humidity 79    
Maximum Humidity 100    
Minimum Humidity 56    
Precipitation  
Precipitation 0.08 in 0.10 in - ()
Sea Level Pressure  
Sea Level Pressure 29.59 in    
Wind  
Wind Speed 8 mph ()    
Max Wind Speed 22 mph    
Max Gust Speed 34 mph    
Visibility 6.2 miles    
Events Rain , Snow    
Averages and records for this station are not official NWS values.
T = Trace of Precipitation, MM = Missing Value Source: Averaged Metar Reports

Daily Weather History Graph

Daily Weather History Graph

Search for Another Location

Airport or City:

Trip Planner

Search our weather history database for the weather conditions in past years. The results will help you decide how hot, cold, wet, or windy it might be!

Date:

Astronomy

Dec. 05, 2012 Rise Set
Actual Time 8:36 AM CET 4:26 PM CET
Civil Twilight 7:55 AM CET 5:07 PM CET
Nautical Twilight 7:11 AM CET 5:51 PM CET
Astronomical Twilight 6:29 AM CET 6:33 PM CET
Moon 11:39 PM CET (12/5) 12:16 PM CET (12/5)
Length of Visible Light 9h 11m
Length of Day
7h 49m
Waning Gibbous, 62% of the Moon is Illuminated
Dec 5
Waning Gibbous
Dec 6
Last Quarter
Dec 13
New
Dec 20
First Quarter
Dec 28
Full

Hourly Weather History & Observations

Time (CET) Temp. Windchill Dew Point Humidity Pressure Visibility Wind Dir Wind Speed Gust Speed Precip Events Conditions
12:07 AM 35.6 °F 31.7 °F 33.8 °F 93% 29.53 in 4.3 mi SW 4.6 mph - N/A   Overcast
12:11 AM 35.6 °F 31.7 °F 33.8 °F 93% 29.53 in 6.2 mi SW 4.6 mph - N/A   Light Drizzle
12:25 AM 35.6 °F 31.7 °F 33.8 °F 93% 29.53 in 6.2 mi SW 4.6 mph - N/A   Overcast
12:55 AM 35.6 °F - 35.6 °F 100% 29.53 in 6.2 mi SW 2.3 mph - N/A   Overcast
1:00 AM 36 °F - 35 °F 93% 29.55 in 25 mi WSW 2.2 mph - - Rain Drizzle
1:25 AM 35.6 °F - 33.8 °F 93% 29.53 in 6.2 mi North 2.3 mph - N/A   Overcast
1:55 AM 37.4 °F 31.4 °F 30.2 °F 75% 29.53 in 6.2 mi North 8.1 mph - N/A   Overcast
2:25 AM 37.4 °F 31.4 °F 28.4 °F 70% 29.53 in 6.2 mi North 8.1 mph - N/A   Overcast
2:55 AM 37.4 °F 30.8 °F 26.6 °F 65% 29.56 in 6.2 mi North 9.2 mph - N/A   Mostly Cloudy
3:25 AM 37.4 °F 31.4 °F 24.8 °F 60% 29.56 in 6.2 mi North 8.1 mph - N/A   Overcast
3:55 AM 35.6 °F 30.7 °F 26.6 °F 70% 29.56 in 6.2 mi North 5.8 mph - N/A   Overcast
4:00 AM 36 °F - 26 °F 57% 29.57 in 28 mi North 4.5 mph - -   Overcast
4:25 AM 35.6 °F 30.7 °F 26.6 °F 70% 29.56 in 6.2 mi North 5.8 mph - N/A   Mostly Cloudy
4:55 AM 35.6 °F 30.7 °F 24.8 °F 65% 29.56 in 6.2 mi North 5.8 mph - N/A   Mostly Cloudy
5:25 AM 35.6 °F - 24.8 °F 65% 29.56 in 6.2 mi North 2.3 mph - N/A   Overcast
5:55 AM 33.8 °F - 26.6 °F 75% 29.56 in 6.2 mi North 1.2 mph - N/A   Overcast
6:25 AM 32.0 °F - 26.6 °F 80% 29.56 in 6.2 mi West 2.3 mph - N/A   Scattered Clouds
6:46 AM 30.2 °F 26.7 °F 26.6 °F 86% 29.56 in 6.2 mi SSW 3.5 mph - N/A   Mostly Cloudy
6:55 AM 32.0 °F 27.5 °F 26.6 °F 80% 29.56 in 6.2 mi SSW 4.6 mph - N/A   Mostly Cloudy
7:00 AM 31 °F - 27 °F 80% 29.58 in 28 mi SSW 4.5 mph - -   Partly Cloudy
7:25 AM 33.8 °F - 26.6 °F 75% 29.56 in 6.2 mi South 2.3 mph - N/A   Mostly Cloudy
7:55 AM 32.0 °F - 26.6 °F 80% 29.56 in 6.2 mi South 2.3 mph - N/A   Mostly Cloudy
8:25 AM 32.0 °F 28.7 °F 26.6 °F 80% 29.56 in 6.2 mi SSW 3.5 mph - N/A   Mostly Cloudy
8:28 AM 32.0 °F - 26.6 °F 80% 29.56 in 6.2 mi SSW 2.3 mph - N/A   Mostly Cloudy
8:55 AM 32.0 °F 28.7 °F 26.6 °F 80% 29.59 in 6.2 mi South 3.5 mph - N/A   Mostly Cloudy
9:03 AM 32.0 °F 28.7 °F 28.4 °F 87% 29.59 in 6.2 mi SW 3.5 mph - N/A Snow Light Snow Grains
9:07 AM 33.8 °F 29.6 °F 28.4 °F 81% 29.59 in 6.2 mi North 4.6 mph - N/A Snow Light Snow Grains
9:13 AM 33.8 °F 30.8 °F 30.2 °F 87% 29.59 in 6.2 mi NE 3.5 mph - N/A   Mostly Cloudy
9:25 AM 33.8 °F 30.8 °F 30.2 °F 87% 29.59 in 6.2 mi East 3.5 mph - N/A   Mostly Cloudy
9:33 AM 35.6 °F 32.8 °F 30.2 °F 81% 29.59 in 6.2 mi SE 3.5 mph - N/A   Mostly Cloudy
9:41 AM 35.6 °F 32.8 °F 28.4 °F 75% 29.59 in 3.7 mi SSE 3.5 mph - N/A Snow Light Snow
9:45 AM 33.8 °F 30.8 °F 30.2 °F 87% 29.59 in 6.2 mi South 3.5 mph - N/A Snow Light Snow
9:49 AM 33.8 °F 30.8 °F 30.2 °F 87% 29.59 in 6.2 mi South 3.5 mph - N/A Snow Light Snow
9:55 AM 33.8 °F - 30.2 °F 87% 29.59 in 6.2 mi South 2.3 mph - N/A   Mostly Cloudy
10:00 AM 35 °F - 30 °F 75% 29.60 in 15 mi 2.2 mph - - Snow Snow
10:00 AM 33.8 °F - 30.2 °F 87% 29.59 in 6.2 mi SSE 1.2 mph - N/A Snow Light Snow
10:13 AM 35.6 °F 30.7 °F 30.2 °F 81% 29.59 in 6.2 mi SSE 5.8 mph - N/A   Mostly Cloudy
10:25 AM 35.6 °F 32.8 °F 30.2 °F 81% 29.59 in - South 3.5 mph - N/A Rain Light Rain
10:27 AM 33.8 °F 30.8 °F 30.2 °F 87% 29.59 in 2.2 mi SW 3.5 mph - N/A Rain , Snow Light Snow
10:31 AM 35.6 °F 32.8 °F 30.2 °F 81% 29.59 in 5.0 mi NW 3.5 mph - N/A Snow Light Snow Showers
10:45 AM 35.6 °F - 32.0 °F 87% 29.59 in 6.2 mi NW 2.3 mph - N/A Rain Light Rain
10:55 AM 35.6 °F - 32.0 °F 87% 29.59 in 6.2 mi West 2.3 mph - N/A   Mostly Cloudy
11:08 AM 35.6 °F 32.8 °F 32.0 °F 87% 29.59 in 3.1 mi South 3.5 mph - N/A   Mostly Cloudy
11:25 AM 33.8 °F 29.6 °F 32.0 °F 93% 29.59 in 6.2 mi South 4.6 mph - N/A   Partly Cloudy
11:49 AM 33.8 °F 27.7 °F 32.0 °F 93% 29.59 in 6.2 mi South 6.9 mph - N/A   Mostly Cloudy
11:55 AM 35.6 °F 29.9 °F 33.8 °F 93% 29.59 in 6.2 mi South 6.9 mph - N/A   Mostly Cloudy
11:57 AM 37.4 °F 32.8 °F 33.8 °F 87% 29.59 in 6.2 mi SSW 5.8 mph - N/A   Mostly Cloudy
12:11 PM 37.4 °F 26.9 °F 32.0 °F 81% 29.59 in 3.1 mi West 20.7 mph - N/A Rain Light Rain
12:15 PM 35.6 °F 24.5 °F 32.0 °F 87% 29.59 in 6.2 mi West 20.7 mph - N/A Rain Light Rain
12:25 PM 37.4 °F 29.8 °F 32.0 °F 81% 29.59 in 6.2 mi West 11.5 mph - N/A   Scattered Clouds
12:27 PM 39.2 °F 32.5 °F 32.0 °F 75% 29.59 in 6.2 mi West 10.4 mph - N/A   Partly Cloudy
12:40 PM 41.0 °F 33.9 °F 33.8 °F 76% 29.56 in 6.2 mi West 12.7 mph - N/A   Partly Cloudy
12:55 PM 41.0 °F 32.8 °F 32.0 °F 70% 29.56 in 6.2 mi West 16.1 mph - N/A   Mostly Cloudy
1:00 PM 40 °F - 32 °F 63% 29.59 in 28 mi West 15.7 mph - - Rain Rain
1:11 PM 37.4 °F 27.2 °F 32.0 °F 81% 29.56 in 4.3 mi West 19.6 mph - N/A   Mostly Cloudy
1:15 PM 35.6 °F 24.8 °F 32.0 °F 87% 29.59 in 6.2 mi WSW 19.6 mph - N/A Rain Light Rain
1:24 PM 37.4 °F 29.8 °F 33.8 °F 87% 29.56 in 6.2 mi WSW 11.5 mph - N/A Rain Light Rain
1:25 PM 35.6 °F 27.1 °F 32.0 °F 87% 29.59 in 6.2 mi WSW 12.7 mph - N/A Rain Light Rain
1:41 PM 39.2 °F 32.5 °F 33.8 °F 81% 29.56 in 6.2 mi West 10.4 mph 23.0 mph N/A   Overcast
1:55 PM 37.4 °F 27.5 °F 33.8 °F 87% 29.56 in 6.2 mi NW 18.4 mph - N/A Rain Light Rain
1:57 PM 37.4 °F 28.2 °F 33.8 °F 87% 29.56 in 6.2 mi NW 16.1 mph 27.6 mph N/A Rain Light Rain
2:01 PM 37.4 °F 28.9 °F 33.8 °F 87% 29.56 in 6.2 mi NW 13.8 mph - N/A Rain Light Rain
3:25 PM 39.2 °F 32.5 °F 32.0 °F 75% 29.56 in 6.2 mi WNW 10.4 mph 23.0 mph N/A   Scattered Clouds
3:35 PM 37.4 °F 30.8 °F 32.0 °F 81% 29.56 in 6.2 mi WNW 9.2 mph 23.0 mph N/A   Mostly Cloudy
3:48 PM 39.2 °F 33.0 °F 30.2 °F 70% 29.56 in 6.2 mi WNW 9.2 mph - N/A   Mostly Cloudy
3:55 PM 39.2 °F 32.0 °F 33.8 °F 81% 29.56 in 6.2 mi NW 11.5 mph - N/A   Mostly Cloudy
3:57 PM 39.2 °F 32.0 °F 33.8 °F 81% 29.56 in 6.2 mi NNW 11.5 mph - N/A   Mostly Cloudy
4:00 PM 40 °F - 33 °F 69% 29.58 in 17 mi NNW 13.4 mph - -   Unknown Precipitation
4:09 PM 39.2 °F 29.8 °F 33.8 °F 81% 29.56 in 3.7 mi NW 18.4 mph - N/A Rain Light Rain
4:13 PM 37.4 °F 27.8 °F 32.0 °F 81% 29.56 in - WNW 17.3 mph 28.8 mph N/A Rain Light Rain
4:17 PM 37.4 °F 28.5 °F 32.0 °F 81% 29.56 in 6.2 mi West 15.0 mph 26.5 mph N/A Rain Light Rain
4:25 PM 37.4 °F 30.8 °F 33.8 °F 87% 29.56 in 6.2 mi West 9.2 mph - N/A   Mostly Cloudy
4:27 PM 39.2 °F 33.0 °F 32.0 °F 75% 29.56 in 6.2 mi WNW 9.2 mph - N/A   Mostly Cloudy
4:40 PM 39.2 °F 31.2 °F 30.2 °F 70% 29.56 in 6.2 mi NW 13.8 mph - N/A   Scattered Clouds
4:55 PM 39.2 °F 30.2 °F 33.8 °F 81% 29.56 in 6.2 mi NW 17.3 mph 28.8 mph N/A   Mostly Cloudy
5:13 PM 35.6 °F 25.2 °F 32.0 °F 87% 29.59 in 6.2 mi NW 18.4 mph - N/A Rain Heavy Drizzle
5:25 PM 37.4 °F 28.9 °F 30.2 °F 75% 29.56 in 6.2 mi WNW 13.8 mph - N/A   Mostly Cloudy
5:55 PM 37.4 °F 27.5 °F 26.6 °F 65% 29.59 in 6.2 mi NW 18.4 mph 33.4 mph N/A   Scattered Clouds
6:18 PM 39.2 °F 29.8 °F 30.2 °F 70% 29.59 in 3.7 mi NW 18.4 mph 33.4 mph N/A Rain Light Rain
6:25 PM 37.4 °F 27.5 °F 30.2 °F 75% 29.59 in 6.2 mi NW 18.4 mph 33.4 mph N/A Rain Light Rain
6:36 PM 37.4 °F 27.8 °F 30.2 °F 75% 29.59 in 6.2 mi NNW 17.3 mph 31.1 mph N/A Rain Light Rain
6:55 PM 37.4 °F 27.8 °F 28.4 °F 70% 29.59 in 6.2 mi NW 17.3 mph - N/A   Mostly Cloudy
7:00 PM 36 °F - 30 °F 71% 29.62 in 19 mi NNW 17.9 mph - - Rain Rain
7:25 PM 35.6 °F 25.9 °F 26.6 °F 70% 29.62 in 6.2 mi NNW 16.1 mph - N/A   Partly Cloudy
7:38 PM 35.6 °F 26.2 °F 30.2 °F 81% 29.62 in 3.7 mi NNW 15.0 mph 27.6 mph N/A Snow Light Snow
7:49 PM 35.6 °F 25.5 °F 30.2 °F 81% 29.62 in 6.2 mi NW 17.3 mph - N/A Snow Light Snow
7:55 PM 35.6 °F 25.9 °F 30.2 °F 81% 29.62 in 6.2 mi NW 16.1 mph 27.6 mph N/A Snow Light Snow
7:57 PM 35.6 °F 26.6 °F 28.4 °F 75% 29.62 in 6.2 mi NW 13.8 mph 25.3 mph N/A Snow Light Snow Grains
8:01 PM 35.6 °F 27.5 °F 28.4 °F 75% 29.62 in 6.2 mi NW 11.5 mph - N/A Snow Light Snow Grains
8:14 PM 37.4 °F 28.2 °F 28.4 °F 70% 29.62 in 6.2 mi NNW 16.1 mph 32.2 mph N/A   Mostly Cloudy
8:25 PM 37.4 °F 27.2 °F 26.6 °F 65% 29.62 in 6.2 mi NNW 19.6 mph 33.4 mph N/A   Mostly Cloudy
8:55 PM 37.4 °F 26.9 °F 24.8 °F 60% 29.62 in 6.2 mi NNW 20.7 mph 33.4 mph N/A   Mostly Cloudy
9:16 PM 37.4 °F 27.2 °F 24.8 °F 60% 29.65 in 6.2 mi NW 19.6 mph 31.1 mph N/A   Partly Cloudy
9:25 PM 37.4 °F 26.6 °F 23.0 °F 56% 29.65 in 6.2 mi NW 21.9 mph - N/A   Partly Cloudy
9:55 PM 35.6 °F 25.2 °F 28.4 °F 75% 29.65 in 6.2 mi NNW 18.4 mph 31.1 mph N/A   Partly Cloudy
10:00 PM 35 °F - 27 °F 64% 29.68 in 22 mi NNW 20.1 mph - -   Partly Cloudy
10:25 PM 35.6 °F 24.8 °F 28.4 °F 75% 29.68 in 6.2 mi NNW 19.6 mph - N/A   Mostly Cloudy
10:29 PM 33.8 °F 23.2 °F 28.4 °F 81% 29.68 in 4.3 mi NNW 17.3 mph 28.8 mph N/A   Mostly Cloudy
10:33 PM 33.8 °F 23.9 °F 30.2 °F 87% 29.68 in 2.8 mi NNW 15.0 mph 26.5 mph N/A Snow Light Snow
10:37 PM 33.8 °F 24.3 °F 32.0 °F 93% 29.68 in 3.7 mi NNW 13.8 mph - N/A Snow Light Snow
10:43 PM 33.8 °F 24.8 °F 30.2 °F 87% 29.68 in 6.2 mi NNW 12.7 mph - N/A   Mostly Cloudy
10:55 PM 35.6 °F 25.5 °F 30.2 °F 81% 29.68 in 6.2 mi North 17.3 mph - N/A   Mostly Cloudy
11:25 PM 35.6 °F 24.5 °F 26.6 °F 70% 29.68 in 6.2 mi NNW 20.7 mph 32.2 mph N/A   Mostly Cloudy
11:55 PM 35.6 °F 24.2 °F 23.0 °F 60% 29.71 in 6.2 mi NNW 21.9 mph 34.5 mph N/A   Mostly Cloudy